Regional Weather Roundup
Issued by NWS

Home | Current Version | Previous Version | Graphics & Text | Print | Product List | Glossary On
Versions: 1 2 3 4 5 6 7 8 9 10 11 12 13 14 15 16 17 18 19 20 21 22 23 24 25 26 27 28 29 30 31 32 33 34 35 36 37 38 39 40 41 42 43 44 45 46 47 48 49 50
000
ASUS43 KDTX 231510
RWRMI
MICHIGAN HOURLY REGIONAL WEATHER ROUNDUP
NATIONAL WEATHER SERVICE DETROIT/PONTIAC MI
1100 AM EDT SUN JUL 23 2017

NOTE: "FAIR" INDICATES FEW OR NO CLOUDS BELOW 12,000 FEET WITH NO
SIGNIFICANT WEATHER AND/OR OBSTRUCTION TO VISIBILITY.

MIZ047>049-052>055-059>063-066>070-074>076-081>083-231600-
SOUTHEAST LOWER MICHIGAN

CITY           SKY/WX    TMP DP  RH WIND       PRES   REMARKS
ADRIAN         MOSUNNY   74  67  78 VRB3      29.81F
ALMA           CLOUDY    69  67  93 CALM      29.81S FOG
ANN ARBOR      PTSUNNY   75  68  78 VRB3      29.80F
BAD AXE        CLOUDY    69  65  85 CALM      29.81S
CARO           CLOUDY    71  65  81 S3        29.79F
DETROIT CITY   MOSUNNY   76  67  73 VRB5      29.79S
DETROIT        PTSUNNY   78  66  66 SW5       29.80S
FLINT          CLOUDY    70  66  87 CALM      29.81R
GROSSE ILE     PTSUNNY   76  67  73 SW3       29.79R
HILLSDALE      CLOUDY    73  68  83 S6        29.82S
HOWELL         CLOUDY    71  66  85 CALM      29.82R

CITY           SKY/WX    TMP DP  RH WIND       PRES   REMARKS
JACKSON        CLOUDY    76  67  73 SW8       29.80F
LAMBERTVILLE   PTSUNNY   76  68  78 W5        29.80S
LANSING        CLOUDY    70  66  87 NE5       29.81F
LAPEER         CLOUDY    71  65  81 CALM      29.81S
MASON          CLOUDY    71  68  88 W5        29.82R
MONROE         MOSUNNY   76  69  78 W8        29.80R
MT. CLEMENS    CLOUDY    72  68  89 N7        29.78F
PONTIAC        CLOUDY    74  67  78 W3        29.80R
PORT HOPE        N/A     70  67  90 E5        29.78F
PORT HURON     CLOUDY    73  66  78 W3        29.79S
TRI CITIES     CLOUDY    71  68  90 SW8       29.81S
MIDLAND        PTSUNNY   74  67  79 S3        29.79S
TROY           PTSUNNY   76  67  71 N3        29.81F
SAGINAW HB     CLOUDY    70  66  88 S5        29.80S
$$
MIZ043>046-050>051-056>058-064>065-071>073-077>080-231600-
SOUTHWEST LOWER MICHIGAN

CITY           SKY/WX    TMP DP  RH WIND       PRES   REMARKS
BATTLE CREEK   PTSUNNY   77  70  79 SW8       29.81F
BENTON HARBOR  MOSUNNY   79  70  74 VRB3      29.80F
BIG RAPIDS     CLOUDY    75  64  69 W9        29.79F
COLDWATER      CLOUDY    76  73  92 W8        29.81F
FREMONT        CLOUDY    75  70  85 W3        29.79S
HOLLAND        SUNNY     79  70  74 W6        29.79R
GRAND RAPIDS   CLOUDY    76  70  82 VRB3      29.80R
IONIA          CLOUDY    74  68  80 NW3       29.80S
KALAMAZOO      MOSUNNY   78  67  68 SW9       29.80F
LUDINGTON      CLOUDY    71  68  89 W5        29.78S
MARSHALL       PTSUNNY   76  70  83 SW9       29.80S
MOUNT PLEASANT PTSUNNY   75  64  69 W3        29.79S
MUSKEGON       MOSUNNY   77  69  76 SW6       29.79R
SOUTH HAVEN    MOSUNNY   77  70  79 S7        29.79F
$$
MIZ016>042-231600-
NORTHERN LOWER MICHIGAN

CITY           SKY/WX    TMP DP  RH WIND       PRES   REMARKS
ALPENA         CLOUDY    72  63  73 SW6       29.79F
BEAVER ISLAND  CLOUDY    70  66  88 SW8       29.76R
BELLAIRE       CLOUDY    72  64  76 CALM      29.76F
CADILLAC       CLOUDY    74  64  72 SW3       29.79F
CHARLEVOIX     CLOUDY    72  66  83 S6        29.78F
FRANKFORT      CLOUDY    72  69  90 SW7       29.77R
GAYLORD        CLOUDY    69  62  78 S6        29.79F
GRAYLING       PTSUNNY   74  62  68 S6        29.79F
HARBOR SPRINGS CLOUDY    68  65  89 CALM      29.76S
HOUGHTON LAKE  MOSUNNY   72  63  73 SW6       29.80F
MANISTEE       MOSUNNY   74  68  81 VRB6      29.77S
OSCODA         CLOUDY    74  63  67 S6        29.78F
PELLSTON       CLOUDY    68  64  87 CALM      29.77F
ROGERS CITY    CLOUDY    69  62  78 S6        29.79F
TRAVERSE CITY  CLOUDY    74  65  73 SW6       29.74F
$$
MIZ007>008-015-231600-
EASTERN UPPER MICHIGAN

CITY           SKY/WX    TMP DP  RH WIND       PRES   REMARKS
KINROSS        LGT RAIN  57  55  94 E14       29.80F
MACKINAC ISLAN LGT RAIN  62  62 100 NE13G23   29.78R
NEWBERRY       CLOUDY    60  59  97 NE9       29.77S FOG
S. S. MARIE    LGT RAIN  59  57  93 E9G20     29.81R FOG
MUNISING         N/A     61  61 100 NW12      29.78S
$$
MIZ004>006-011>014-085-231600-
CENTRAL UPPER MICHIGAN

CITY           SKY/WX    TMP DP  RH WIND       PRES   REMARKS
MANISTIQUE     LGT RAIN  63  60  89 NW5       29.76S
ESCANABA       LGT RAIN  65  63  93 N5        29.77S
MENOMINEE      PTSUNNY   73  65  75 N8        29.78S
SAWYER-GWINN   CLOUDY    59  57  94 N16       29.80S
$$
MIZ001>003-009>011-084-231600-
WESTERN UPPER MICHIGAN

CITY           SKY/WX    TMP DP  RH WIND       PRES   REMARKS
IRON MOUNTAIN  MOSUNNY   69  60  73 NW9       29.79S
HOUGHTON       CLOUDY    58  55  90 E12       29.86R FOG
COPPER HARBOR    N/A     53  51  93 N7        29.88R
$$

ABBREVIATIONS USED IN REMARKS
   TC - TEMPERATURE IN CELSIUS
  WCI - WIND CHILL INDEX
   HX - HEAT INDEX
  VSB - VISIBILITY




USA.gov is the U.S. government's official web portal to all federal, state and local government web resources and services.